Regional Weather Roundup
Issued by NWS

Home | Current Version | Previous Version | Graphics & Text | Print | Product List | Glossary On
Versions: 1 2 3 4 5 6 7 8 9 10 11 12 13 14 15 16 17 18 19 20 21 22 23 24 25 26 27 28 29 30 31 32 33 34 35 36 37 38 39 40 41 42 43 44 45 46 47 48 49 50
000
ASUS43 KDMX 221401
RWRIA

WEATHER ROUNDUP FOR IOWA
NATIONAL WEATHER SERVICE DES MOINES IA
800 AM CST WED FEB 22 2017

NOTE: "FAIR" INDICATES FEW OR NO CLOUDS BELOW 12,000 FEET WITH NO
SIGNIFICANT WEATHER AND/OR OBSTRUCTIONS TO VISIBILITY.

* - THESE STATIONS ARE NOT NWS STATIONS...THUS NOT UNDER NWS
QUALITY CONTROL.  THEY ALSO DO NOT REPORT WEATHER SUCH
AS PRECIPITATION OR FOG.

IAZ001>003-012>014-020>022-031>034-043>046-221500-
   NORTHWEST IOWA

CITY           SKY/WX    TMP DP  RH WIND       PRES   REMARKS
CARROLL *        N/A     46  37  71 VRB5      29.64R
CHEROKEE *       N/A     41  35  81 CALM      29.65R
DENISON *        N/A     45  36  70 CALM      29.62S
LE MARS *        N/A     34  32  93 CALM      29.65F
ORANGE CITY *    N/A     36  34  93 W5        29.65R WCI  32
SHELDON *        N/A     37  37 100 SW9       29.63S WCI  31
SIOUX CITY       N/A     36  32  85 NW10      29.64R WCI  28
SPENCER          N/A     40  35  83 S5        29.62S
STORM LAKE *     N/A     45  36  70 SW13      29.61F
$$

IAZ055>058-069>071-079>083-090>094-221500-
   SOUTHWEST IOWA

CITY           SKY/WX    TMP DP  RH WIND       PRES   REMARKS
ATLANTIC *       N/A     43  36  75 CALM      29.67F
CLARINDA *       N/A     37  36  93 SW3       29.71F
COUNCIL BLFS *   N/A     52  36  54 SW12      29.65F
CRESTON *        N/A     45  34  65 S9        29.72F
HARLAN  *        N/A     41  39  93 S9        29.69S
LAMONI           N/A     46  36  68 S7        29.74S
RED OAK *        N/A     45  36  70 S5        29.69S
SHENANDOAH *     N/A     45  36  70 SE6       29.70S
$$

IAZ047>049-059>061-072>074-084-221500-
   CENTRAL IOWA

CITY           SKY/WX    TMP DP  RH WIND       PRES   REMARKS
AMES             N/A     46  38  73 S7        29.66S
ANKENY *         N/A     52  34  50 S10       29.68F
BOONE *          N/A     48  36  61 SW9       29.64F
CHARITON *       N/A     50  37  62 SW12      29.72S
DES MOINES       N/A     50  33  52 S9        29.68F
GRINNELL*        N/A     47  38  70 S12       29.71S
KNOXVILLE *      N/A     52  36  54 S10       29.69F
MARSHALLTOWN     N/A     49  35  58 SW10      29.66F
NEWTON *         N/A     50  36  57 S12G17    29.68F
PELLA *          N/A     51  38  61 S12       29.72F
PERRY *          N/A     46  38  72 S7        29.65S
$$

IAZ004>006-015-016-023>025-035-036-221500-
   NORTH CENTRAL IOWA

CITY           SKY/WX    TMP DP  RH WIND       PRES   REMARKS
ALGONA *         N/A     39  36  87 S9        29.61F WCI  33
CLARION *        N/A     39  37  93 S7        29.63F WCI  34
ESTHERVILLE      N/A     41  35  79 SW12      29.60S
FORT DODGE *     N/A     43  34  70 S5        29.63F
MASON CITY       N/A     39  34  82 S10       29.63F WCI  32
FOREST CITY *    N/A     39  37  93 SW7       29.61S WCI  34
WEBSTER CITY *   N/A     45  37  76 SW9       29.62S
IOWA FALLS *     N/A     44  36  72 CALM      29.66R
$$

IAZ007>011-017>019-026>030-037>042-050>054-066-221500-
   NORTHEAST IOWA

CITY           SKY/WX    TMP DP  RH WIND       PRES   REMARKS
CEDAR RAPIDS     N/A     49  48  97 S15       29.70F
CHARLES CITY *   N/A     39  37  93 S9        29.65S WCI  33
CLINTON *      CLOUDY    52  52 100 S12       29.76S FOG
DECORAH *        N/A     45  34  65 S9        29.64F
DUBUQUE          N/A     47  47 100 S14       29.70F FOG
MONTICELLO *     N/A     50  48  93 S12       29.71S
OELWEIN *        N/A     41  37  87 S9        29.67F
WATERLOO         N/A     45  34  65 S7        29.66F
$$

IAZ064-065-067-068-078-221500-
   EAST CENTRAL IOWA

CITY           SKY/WX    TMP DP  RH WIND       PRES   REMARKS
DAVENPORT      PTSUNNY   53  52  96 SW13      29.76F FOG
IOWA CITY      CLOUDY    48  47  96 E5        29.75F FOG
MUSCATINE *    CLOUDY    54  52  94 S8        29.78S FOG
QUAD CITIES    FOG       54  51  90 SW8       29.76F VSB 1
$$

IAZ062-063-075>077-085>089-095>099-221500-
   SOUTHEAST IOWA

CITY           SKY/WX    TMP DP  RH WIND       PRES   REMARKS
BURLINGTON     FOG       53  53 100 S13       29.79R VSB 1/4
FAIRFIELD *      N/A     52  50  93 S13       29.75F
KEOKUK *       FOG       52  52 100 SW13      29.80S VSB<1/4
OTTUMWA          N/A     50  47  89 S12       29.74S
WASHINGTON *     N/A     52  52 100 S13G20    29.76F FOG
$$

ABBREVIATIONS USED IN REMARKS
   TC - TEMPERATURES IN CELSIUS
  WCI - WIND CHILL INDEX
   HX - HEAT INDEX
  VSB - VISIBILITY
$$




USA.gov is the U.S. government's official web portal to all federal, state and local government web resources and services.